Flag for U.S.A. Weather past 2 weeks in Winamac, Indiana, U.S.A.

Now
-8 °F

Passing clouds.


Feels Like: -8 °F
Forecast: -4 / 22 °F
Wind: No wind

Location: Porter County Municipal Airport

Current Time: Feb 28, 2015 at 7:58:09 AM

Latest Report: Feb 28, 2015 at 6:56 AM


Visibility: 9 mi

Pressure: 30.77 "Hg

Humidity: 78%

Dew point: -13 °F

Location of WinamacLocation

Historic Weather in Winamac — Graph

°F

Winamac temperature yesterday

Maximum temperature yesterday: 15 °F (at 12:56 PM)
Minimum temperature yesterday: -2 °F (at 7:56 AM)
Average temperature yesterday: 7 °F

Past Weeks' High & Low Weather Summary

 TemperatureHumidityPressure
High28 °F (Feb 21, 4:56 PM)92% (Feb 27, 4:56 AM)30.77 "Hg (Feb 27, 4:56 AM)
Low-12 °F (Feb 20, 6:56 AM)37% (Feb 15, 4:56 PM)29.76 "Hg (Feb 24, 2:56 PM)
Average11 °F68%30.23 "Hg
* Reported Feb 13 6:56 AM — Feb 28 6:56 AM, Winamac, Weather by CustomWeather, © 2015

Note: Actual official high and low records may vary slightly from our data, if they occured in-between our weather recording intervals... More about our weather records

Advertising

Winamac weather history for previous 24 hours

 ConditionsComfort  
Time TempWeatherWind HumidityBarometerVisibility
6:56 AM
Sat, Feb 28
-8 °FPassing clouds.No wind78%30.77 "Hg9 mi
5:56 AM-8 °FClear.No wind83%30.75 "Hg8 mi
4:56 AM-9 °FClear.No wind82%30.73 "Hg7 mi
3:56 AM-9 °FClear.No wind82%30.73 "Hg9 mi
2:56 AM-7 °FClear.No windN/A30.73 "Hg9 mi
1:56 AM-6 °FClear.No wind87%30.73 "Hg10 mi
12:56 AM-1 °FClear.No wind75%30.72 "Hg10 mi
11:56 PM
Fri, Feb 27
-1 °FClear.3 mph79%30.72 "Hg10 mi
10:56 PM2 °FClear.No wind69%30.72 "Hg10 mi
9:56 PM4 °FClear.5 mph63%30.71 "Hg10 mi
8:56 PM6 °FClear.8 mph57%30.70 "Hg10 mi
7:56 PM5 °FClear.8 mph60%30.69 "Hg10 mi
6:56 PM9 °FClear.12 mph61%30.67 "Hg10 mi
5:56 PM12 °FClear.10 mph56%30.66 "Hg10 mi
4:56 PM14 °FSunny.10 mph49%30.64 "Hg10 mi
3:56 PM15 °FSunny.10 mph46%30.64 "Hg10 mi
2:56 PM15 °FLight snow. Sunny.7 mph44%30.63 "Hg10 mi
1:56 PM15 °FSunny.3 mph46%30.64 "Hg10 mi
12:56 PM15 °FSunny.8 mph44%30.65 "Hg10 mi
11:56 AM13 °FSunny.7 mph46%30.64 "Hg10 mi
10:56 AM12 °FSunny.8 mph51%30.63 "Hg10 mi
9:56 AM9 °FSunny.6 mph61%30.61 "Hg10 mi
8:56 AM4 °FSunny.5 mph76%30.59 "Hg10 mi
7:56 AM-2 °FSunny.5 mph83%30.56 "Hg10 mi
Weather by CustomWeather, © 2015

See weather overviewHow to use our weather pages